Change the Weather History Date:

Sunday, November 25, 2012

  Actual Average Record
Temperature  
Mean Temperature 37 °F -  
Max Temperature 42 °F 51 °F 68 °F (2004)
Min Temperature 32 °F 38 °F 24 °F (2000)
Degree Days  
Heating Degree Days 28    
Moisture  
Dew Point 21 °F    
Average Humidity 52    
Maximum Humidity 80    
Minimum Humidity 42    
Precipitation  
Precipitation 0.00 in - - ()
Sea Level Pressure  
Sea Level Pressure 29.98 in    
Wind  
Wind Speed 11 mph (West)    
Max Wind Speed 18 mph    
Max Gust Speed 26 mph    
Visibility 10 miles    
Events      
Averages and records for this station are not official NWS values.
T = Trace of Precipitation, MM = Missing Value Source: NWS Daily Summary

Daily Weather History Graph

Daily Weather History Graph

Search for Another Location

Airport or City:

Trip Planner

Search our weather history database for the weather conditions in past years. The results will help you decide how hot, cold, wet, or windy it might be!

Date:

Astronomy

Nov. 25, 2012 Rise Set
Actual Time 6:53 AM EST 4:39 PM EST
Civil Twilight 6:24 AM EST 5:08 PM EST
Nautical Twilight 5:51 AM EST 5:41 PM EST
Astronomical Twilight 5:19 AM EST 6:13 PM EST
Moon 2:54 PM EST (11/25) 4:06 AM EST (11/25)
Length of Visible Light 10h 43m
Length of Day
9h 45m
Waxing Gibbous, 93% of the Moon is Illuminated
Nov 25
Waxing Gibbous
Nov 28
Full
Dec 6
Last Quarter
Dec 13
New
Dec 20
First Quarter

Hourly Weather History & Observations

Time (EST) Temp. Windchill Dew Point Humidity Pressure Visibility Wind Dir Wind Speed Gust Speed Precip Events Conditions
12:15 AM 37.4 °F 29.8 °F 19.4 °F 48% 29.96 in 10.0 mi WNW 11.5 mph 21.9 mph N/A   Clear
12:35 AM 37.4 °F 29.8 °F 19.4 °F 48% 29.96 in 10.0 mi WNW 11.5 mph 24.2 mph N/A   Clear
12:55 AM 37.4 °F 29.3 °F 19.4 °F 48% 29.96 in 10.0 mi West 12.7 mph 21.9 mph N/A   Clear
1:15 AM 37.4 °F 29.3 °F 19.4 °F 48% 29.96 in 10.0 mi WNW 12.7 mph 21.9 mph N/A   Clear
1:35 AM 37.4 °F 29.3 °F 19.4 °F 48% 29.97 in 10.0 mi WNW 12.7 mph 26.5 mph N/A   Clear
1:55 AM 37.4 °F 28.9 °F 19.4 °F 48% 29.97 in 10.0 mi West 13.8 mph 20.7 mph N/A   Clear
2:15 AM 37.4 °F 28.5 °F 19.4 °F 48% 29.97 in 10.0 mi WNW 15.0 mph 23.0 mph N/A   Clear
2:35 AM 37.4 °F 29.3 °F 19.4 °F 48% 29.98 in 10.0 mi West 12.7 mph 19.6 mph N/A   Clear
2:55 AM 37.4 °F 29.3 °F 19.4 °F 48% 29.98 in 10.0 mi WNW 12.7 mph - N/A   Clear
3:15 AM 37.4 °F 29.3 °F 19.4 °F 48% 29.98 in 10.0 mi WNW 12.7 mph 21.9 mph N/A   Clear
3:35 AM 37.4 °F 30.3 °F 21.2 °F 52% 29.98 in 10.0 mi WNW 10.4 mph 20.7 mph N/A   Clear
3:55 AM 37.4 °F 29.3 °F 19.4 °F 48% 29.98 in 10.0 mi West 12.7 mph 21.9 mph N/A   Partly Cloudy
4:15 AM 37.4 °F 29.3 °F 19.4 °F 48% 29.97 in 10.0 mi West 12.7 mph 19.6 mph N/A   Partly Cloudy
4:35 AM 37.4 °F 28.5 °F 19.4 °F 48% 29.98 in 10.0 mi WNW 15.0 mph 24.2 mph N/A   Mostly Cloudy
4:55 AM 37.4 °F 29.3 °F 19.4 °F 48% 29.98 in 10.0 mi WNW 12.7 mph 20.7 mph N/A   Mostly Cloudy
5:15 AM 37.4 °F 28.9 °F 19.4 °F 48% 29.98 in 10.0 mi WNW 13.8 mph 24.2 mph N/A   Partly Cloudy
5:35 AM 37.4 °F 29.8 °F 19.4 °F 48% 29.98 in 10.0 mi WNW 11.5 mph 20.7 mph N/A   Partly Cloudy
5:55 AM 37.4 °F 29.8 °F 19.4 °F 48% 29.99 in 10.0 mi WNW 11.5 mph 19.6 mph N/A   Partly Cloudy
6:15 AM 37.4 °F 28.9 °F 21.2 °F 52% 29.99 in 10.0 mi WNW 13.8 mph 19.6 mph N/A   Partly Cloudy
6:35 AM 37.4 °F 28.9 °F 19.4 °F 48% 30.00 in 10.0 mi WNW 13.8 mph 21.9 mph N/A   Partly Cloudy
6:55 AM 35.6 °F 28.0 °F 19.4 °F 52% 30.00 in 10.0 mi West 10.4 mph 18.4 mph N/A   Clear
7:15 AM 35.6 °F 26.6 °F 21.2 °F 56% 30.01 in 10.0 mi West 13.8 mph 19.6 mph N/A   Clear
7:35 AM 35.6 °F 26.2 °F 21.2 °F 56% 30.01 in 10.0 mi West 15.0 mph 19.6 mph N/A   Clear
7:55 AM 37.4 °F 30.3 °F 21.2 °F 52% 30.02 in 10.0 mi West 10.4 mph 18.4 mph N/A   Clear
8:15 AM 37.4 °F 29.3 °F 21.2 °F 52% 30.02 in 10.0 mi West 12.7 mph 20.7 mph N/A   Clear
8:35 AM 37.4 °F 28.9 °F 21.2 °F 52% 30.02 in 10.0 mi West 13.8 mph 18.4 mph N/A   Clear
8:55 AM 37.4 °F 30.3 °F 21.2 °F 52% 30.03 in 10.0 mi WNW 10.4 mph 18.4 mph N/A   Clear
9:15 AM 37.4 °F 28.5 °F 21.2 °F 52% 30.02 in 10.0 mi West 15.0 mph 19.6 mph N/A   Clear
9:35 AM 39.2 °F 31.6 °F 21.2 °F 49% 30.03 in 10.0 mi West 12.7 mph 21.9 mph N/A   Clear
9:55 AM 39.2 °F 30.8 °F 21.2 °F 49% 30.02 in 10.0 mi West 15.0 mph 23.0 mph N/A   Clear
10:15 AM 39.2 °F 32.0 °F 21.2 °F 49% 30.01 in 10.0 mi West 11.5 mph 20.7 mph N/A   Clear
10:35 AM 39.2 °F 30.5 °F 21.2 °F 49% 30.02 in 10.0 mi West 16.1 mph 20.7 mph N/A   Clear
10:55 AM 39.2 °F 30.5 °F 21.2 °F 49% 30.02 in 10.0 mi West 16.1 mph 20.7 mph N/A   Partly Cloudy
11:15 AM 39.2 °F 31.6 °F 21.2 °F 49% 30.01 in 10.0 mi West 12.7 mph 21.9 mph N/A   Scattered Clouds
11:35 AM 39.2 °F 29.8 °F 21.2 °F 49% 30.00 in 10.0 mi West 18.4 mph 23.0 mph N/A   Mostly Cloudy
11:55 AM 41.0 °F 33.9 °F 21.2 °F 45% 29.98 in 10.0 mi West 12.7 mph 18.4 mph N/A   Mostly Cloudy
12:15 PM 41.0 °F 33.1 °F 21.2 °F 45% 29.98 in 10.0 mi West 15.0 mph 20.7 mph N/A   Mostly Cloudy
12:35 PM 42.8 °F 35.1 °F 21.2 °F 42% 29.97 in 10.0 mi WNW 16.1 mph 20.7 mph N/A   Partly Cloudy
12:55 PM 41.0 °F 34.3 °F 21.2 °F 45% 29.97 in 10.0 mi West 11.5 mph 20.7 mph N/A   Scattered Clouds
1:15 PM 41.0 °F 33.5 °F 21.2 °F 45% 29.96 in 10.0 mi West 13.8 mph 20.7 mph N/A   Mostly Cloudy
1:35 PM 39.2 °F 32.0 °F 21.2 °F 49% 29.95 in 10.0 mi West 11.5 mph - N/A   Scattered Clouds
1:55 PM 39.2 °F 33.0 °F 21.2 °F 49% 29.94 in 10.0 mi WSW 9.2 mph 17.3 mph N/A   Scattered Clouds
2:15 PM 41.0 °F 34.3 °F 23.0 °F 49% 29.95 in 10.0 mi WSW 11.5 mph - N/A   Overcast
2:35 PM 39.2 °F 32.0 °F 21.2 °F 49% 29.95 in 10.0 mi WSW 11.5 mph 17.3 mph N/A   Overcast
2:55 PM 41.0 °F 35.2 °F 21.2 °F 45% 29.94 in 10.0 mi West 9.2 mph - N/A   Overcast
3:15 PM 41.0 °F 35.2 °F 21.2 °F 45% 29.94 in 10.0 mi West 9.2 mph 17.3 mph N/A   Overcast
3:35 PM 41.0 °F 34.7 °F 21.2 °F 45% 29.94 in 10.0 mi West 10.4 mph 16.1 mph N/A   Scattered Clouds
3:55 PM 41.0 °F 35.2 °F 21.2 °F 45% 29.94 in 10.0 mi West 9.2 mph - N/A   Clear
4:15 PM 41.0 °F 35.8 °F 21.2 °F 45% 29.94 in 10.0 mi WSW 8.1 mph - N/A   Clear
4:35 PM 39.2 °F 33.0 °F 21.2 °F 49% 29.94 in 10.0 mi West 9.2 mph - N/A   Clear
4:55 PM 39.2 °F 33.6 °F 21.2 °F 49% 29.95 in 10.0 mi WSW 8.1 mph - N/A   Clear
5:15 PM 39.2 °F 32.5 °F 21.2 °F 49% 29.95 in 10.0 mi West 10.4 mph - N/A   Clear
5:35 PM 39.2 °F 33.6 °F 21.2 °F 49% 29.96 in 10.0 mi West 8.1 mph - N/A   Clear
5:55 PM 39.2 °F 35.0 °F 21.2 °F 49% 29.96 in 10.0 mi WSW 5.8 mph - N/A   Clear
6:15 PM 39.2 °F 34.2 °F 21.2 °F 49% 29.97 in 10.0 mi WSW 6.9 mph - N/A   Clear
6:35 PM 39.2 °F 35.0 °F 21.2 °F 49% 29.97 in 10.0 mi WSW 5.8 mph - N/A   Clear
6:55 PM 39.2 °F 35.0 °F 21.2 °F 49% 29.98 in 10.0 mi WSW 5.8 mph - N/A   Clear
7:15 PM 37.4 °F 32.8 °F 21.2 °F 52% 29.98 in 10.0 mi SW 5.8 mph - N/A   Clear
7:35 PM 37.4 °F 33.8 °F 21.2 °F 52% 29.99 in 10.0 mi SW 4.6 mph - N/A   Clear
7:55 PM 37.4 °F 33.8 °F 23.0 °F 56% 29.99 in 10.0 mi SW 4.6 mph - N/A   Clear
8:15 PM 37.4 °F 32.8 °F 24.8 °F 60% 29.99 in 10.0 mi SW 5.8 mph - N/A   Clear
8:35 PM 37.4 °F 33.8 °F 24.8 °F 60% 29.99 in 10.0 mi SSW 4.6 mph - N/A   Clear
8:55 PM 35.6 °F 30.7 °F 24.8 °F 65% 30.00 in 10.0 mi SSW 5.8 mph - N/A   Clear
9:15 PM 35.6 °F 30.7 °F 24.8 °F 65% 30.00 in 10.0 mi SSW 5.8 mph - N/A   Clear
9:35 PM 35.6 °F 30.7 °F 24.8 °F 65% 30.00 in 10.0 mi SW 5.8 mph - N/A   Clear
9:55 PM 35.6 °F 31.7 °F 26.6 °F 70% 30.00 in 10.0 mi SW 4.6 mph - N/A   Clear
10:15 PM 37.4 °F 34.9 °F 26.6 °F 65% 30.00 in - SW 3.5 mph - N/A   Clear
10:35 PM 33.8 °F 30.8 °F 24.8 °F 70% 30.00 in - SW 3.5 mph - N/A   Clear
10:55 PM 33.8 °F - 26.6 °F 75% 29.99 in - Calm Calm - N/A   Clear
11:15 PM 32.0 °F - 24.8 °F 75% 29.99 in - Calm Calm - N/A   Clear
11:35 PM 32.0 °F 27.5 °F 26.6 °F 80% 29.99 in - SSW 4.6 mph - N/A   Clear
11:55 PM 33.8 °F 30.8 °F 26.6 °F 75% 29.99 in - SSW 3.5 mph - N/A   Clear